Home   Weather   Manaus   Past weeks
Flag for Brazil

Past Weather in Manaus, Amazonas, Brazil — Yesterday and Last 2 Weeks

Now
82 °F

Passing clouds.


Feels Like: 89 °F
Forecast: N/A
Wind: 6 mph from Northeast

Location: Manaus Aeroporto

Current Time: Feb 15, 2019 at 7:35:38 pm

Latest Report: Feb 15, 2019 at 7:00 pm


Visibility: N/A

Pressure: 29.83 "Hg

Humidity: 79%

Dew Point: 75 °F

Location of ManausLocation

Past Weather in Manaus — Graph

°F

Manaus Temperature Yesterday

Maximum temperature yesterday: 84 °F (at 4:00 pm)
Minimum temperature yesterday: 75 °F (at 3:00 am)
Average temperature yesterday: 78 °F

High & Low Weather Summary for the Past Weeks

 TemperatureHumidityPressure
High90 °F (Feb 4, 1:00 pm)100% (Feb 2, 10:00 pm)30.15 "Hg (Feb 2, 10:00 pm)
Low73 °F (Feb 9, 8:00 pm)22% (Feb 9, 1:15 pm)29.71 "Hg (Feb 7, 3:00 pm)
Average79 °F87%29.86 "Hg
* Reported Jan 31 6:00 pm — Feb 15 6:00 pm, Manaus. Weather by CustomWeather, © 2019

Note: Actual official high and low records may vary slightly from our data, if they occured in-between our weather recording intervals... More about our weather records

Advertising

Manaus Weather History for the Previous 24 Hours

Scroll right to see more
 ConditionsComfort  
Time TempWeatherWind HumidityBarometerVisibility
6:00 pm
Fri, Feb 15
82 °FScattered clouds.5 mph79%29.80 "HgN/A
5:00 pm84 °FScattered clouds.6 mph74%29.80 "HgN/A
4:00 pm86 °FScattered clouds.6 mph75%29.80 "HgN/A
3:00 pm86 °FScattered clouds.5 mph75%29.83 "HgN/A
2:00 pm84 °FScattered clouds.3 mph79%29.89 "HgN/A
1:00 pm82 °FBroken clouds.5 mph79%29.92 "HgN/A
12:00 pm81 °FPartly sunny.7 mph79%29.95 "HgN/A
11:00 am82 °FBroken clouds.6 mph84%29.98 "HgN/A
10:00 am81 °FBroken clouds.7 mph79%29.98 "HgN/A
9:00 am77 °FPartly sunny.8 mph89%29.98 "HgN/A
8:00 am75 °FBroken clouds.5 mph94%29.95 "HgN/A
7:00 am75 °FLight rain. Broken clouds.7 mph94%N/A5 mi
6:26 am75 °FLight rain. Broken clouds.8 mph94%N/A2 mi
6:00 am77 °FRain. Passing clouds.6 mph94%29.92 "Hg1 mi
5:00 am77 °FPartly cloudy.2 mph94%29.86 "HgN/A
4:00 am77 °FPassing clouds.2 mph94%29.89 "HgN/A
3:00 am77 °FPassing clouds.2 mph94%29.89 "HgN/A
2:00 am75 °FPassing clouds.2 mph94%29.89 "HgN/A
1:00 am75 °FPassing clouds.2 mph94%29.92 "HgN/A
12:00 am77 °FClear.No wind89%29.92 "Hg10 mi
11:00 pm
Thu, Feb 14
77 °FClear.2 mph89%29.95 "Hg10 mi
10:00 pm77 °FClear.2 mph89%29.92 "Hg10 mi
9:00 pm79 °FPassing clouds.3 mph84%29.92 "HgN/A
8:00 pm79 °FPassing clouds.5 mph84%29.86 "HgN/A
7:00 pm79 °FPassing clouds.5 mph84%29.86 "HgN/A
Weather by CustomWeather, © 2019

See weather overview